Live-Position
3D-Globus wird geladen...
Über Starlink 4442
Group: 3 satellites
Beschreibung wird geladen...
Nächste Überflüge
Passes for default location (London). Set your location on the main map for personalized predictions.
Höhenverlauf
Loading altitude history...
Y: Altitude (km)
No altitude history available
Zweizeiliger Elementsatz
1 53480U 22099R 26139.33335648 .00056145 00000-0 17852-2 0 9994
2 53480 97.6051 262.0175 0001773 70.0517 239.5219 15.32413739 5623
Epoch: 19. Mai 2026 •
Age: 5 hours
Aktueller Status
Höhe 478.5 km
Geschwindigkeit 7.63 km/s
Subsatellitenpunkt 62.91°N,
18.66°E
Startdatum 12. Aug. 2022
Alter 3.7 years
Typ internet
Startgruppe
Falcon 9 •
Group 3-3 •
39 satellites
Starlink 4415
53465
Starlink 4398 53466
Starlink 4394 53467
Starlink 4400 53468
Starlink 4399 53469
Starlink 4393 53470
Starlink 4447 53472
Starlink 4383 53473
Starlink 4445 53474
Starlink 4389 53475
Starlink 4378 53476
Starlink 4412 53477
Starlink 4433 53478
Starlink 4436 53479
Starlink 4302 53481
Starlink 4360 53482
Starlink 4426 53484
Starlink 4430 53485
Starlink 4431 53486
Starlink 4432 53487
...and 18 more
Technische Details
Klassifizierung Payload
Masse 300.00 kg
Trockenmasse 275.00 kg
Gesamtmasse 300.00 kg
Länge 0.20 m
Durchmesser 2.80 m
Spannweite 9.00 m
Form Box + pan
Hersteller SPXS
Bus-Typ Starlink
Phasenstatus In Orbit
Besitzer/Staat SPXS/US
Most Searched
Loading...